Location: Darmstadt
(49.8706°N, 8.6494°E)
Time: 06:22:56
(UTC+01:00)

CRYOSAT 2 - Pass Details

Date: 31 October 2020
Orbit: 715 x 724 km, 92.0° (Epoch: 03 December)

Event Time Altitude Azimuth Distance (km) Brightness Sun altitude
Rises 18:40:23 0° 8° (N) 3,135 7.6 -16.0°
Reaches altitude 10° 18:42:45 10° 14° (NNE) 2,209 6.7 -16.4°
Maximum altitude 18:47:30 51° 90° (E) 902 4.4 -17.1°
Drops below altitude 10° 18:52:13 10° 167° (SSE) 2,192 6.7 -17.9°
Sets 18:54:33 0° 172° (S) 3,108 7.6 -18.3°
